STARLINK-32774, 62737

Orbit data source: Space-Track

STARLINK-32774, 62737 is a payload satellite owned by SpaceX/Seattle (US) in LEO that was launched on Tue, 21 Jan 2025 UTC via an FALCON 9 launch vehicle from the Air Force Eastern Test Range (AFETR). Payload-class satellites include a variety of spacecraft equipped with specific instruments for various scientific and technological missions. These include communications satellites like Starlink; space stations such as the ISS; scientific satellites like the Hubble; Earth observation satellites from companies like Planet Labs, Umbra, and HawkEye 360; GPS; miniature CubeSats for education and research; and military/defense satellites.

Loading next visibility...
Identifier
62737, 2025-014C
Orbit
LEO
Country
Flag of USUS
Related business
Manufacturer
SpaceX/Seattle
Mission
Operational Commercial Communications
Bus & Motor
STARLINK V2M, Unknown motor
Mass
730 kg wet, ~700 kg dry
Launch date (UTC)
2025-01-21 (11 months ago)
Launch vehicle
FALCON 9
Launch site
Air Force Eastern Test Range (AFETR)
Object type
Payload
Rocket body
Debris
Shape & HBR
Box + 2 Pan, 17.7 m
Radar Cross Section
33.884 m², Large (>1 m²)

Expand to show TLE details & history
Last TLE update: 1 day ago

TLE from 1 day ago
0 STARLINK-32774
1 62737U 25014C   25348.18745900  .00049684  00000-0  18046-2 0  9995
2 62737  43.0020 280.4891 0001547 276.1487  83.9188 15.27549042 50146
Epoch: 2025-12-14T04:29Z
TLE epoch observation values (Epoch: 2025-12-14T04:29:56.457Z)
Latitude
-0.00005°
Longitude
129.89984°
Altitude
482.805 km
Speed
7.626 km/s
True Right ascension
18h 41m 57s
True Declination
0° 00' 00"
Sunlit
Object was in daylight at epoch
Visualization orbit readout
Latitude
Unknown
Longitude
Unknown
Altitude
Unknown
Speed
Unknown
Apparent Right ascension
Unknown
Apparent Declination
Unknown
Sunlit
N/A
Visualization observer readout
Local Sidereal Time
13:24:46
Azimuth
Unknown
Elevation
Unknown
Doppler factor
Unknown
Orbital elements
Apogee altitude
486.148 km
Perigee altitude
484.025 km
Semi-major axis
6,863.224 km
Eccentricity
0.00015
Inclination
43.002°
RAAN
280.4891°
Arg. of periapsis
276.1487°
True anomaly
83.93643°
Mean anomaly
83.9188°
Eccentric anomaly
83.92761°
Mean motion
3.81725 °/min
Orbital period
94.31 mins
BSTAR
0.0018046
Loading maneuver chart data...
Computing Atmospheric mass density...
Loading historical data...
Loading historical data...
Loading historical data...
Loading historical data...
Loading historical data...
Loading historical data...
Loading historical data...

Documentation

Showing up to 5 results
|